Location: Unspecified
(0.0000°N, 0.0000°E)
Time: 17:51:10
(UTC+02:00)

Cosmos 2237 Rocket - Visible Passes

Search period start: 27 May 2015 00:00
Search period end: 06 June 2015 00:00
Orbit: 834 x 851 km, 71.0° (Epoch: 26 May)

Date Brightness Start Highest point End Pass type
(mag) Time Alt. Az. Time Alt. Az. Time Alt. Az.
01 Jun 4.5 22:54:18 17° NNW 22:54:18 17° NNW 22:55:44 10° N visible
02 Jun 4.0 20:54:21 12° E 20:54:21 12° E 20:55:09 10° ENE visible
02 Jun 3.5 22:35:45 37° WNW 22:35:52 37° WNW 22:41:02 10° N visible
03 Jun 3.7 20:34:26 10° SE 20:37:03 14° ESE 20:40:05 10° ENE visible
03 Jun 3.4 22:15:46 10° SW 22:21:05 40° WNW 22:26:20 10° N visible
04 Jun 3.8 20:20:00 10° SE 20:22:14 13° ESE 20:24:56 10° E visible
04 Jun 3.3 22:00:55 10° SW 22:06:17 43° WNW 22:11:37 10° N visible
05 Jun 3.2 21:46:04 10° SSW 21:51:30 45° WNW 21:56:53 10° N visible
